Waynesville, NC (28785)

12:10 AM EDT on April 21, 2018 (GMT -0400)
Historic Oak Retreat (Stone Gate) | | Change Station
Active Advisory: Frost Advisory

Elev 3000 ft 35.60 °N, 83.03 °W | Updated 7 minutes ago

Clear
Clear
43.9 °F
Feels Like 44 °F
N
0.0
Wind Variable Wind from SW

Today
High -- | Low -- °F
--% Chance of Precip.
Yesterday
High -- | Low -- °F
Precip. -- in
Pressure 30.33 in
Visibility 10.0 miles
Clouds Clear
Windchill 44 °F
Dew Point 25 °F
Humidity 47%
Rainfall 0.00 in
Snow Depth Not available.
6:52 AM 8:10 PM
Waxing Crescent, 31% visible
METAR KAVL 210354Z AUTO 20005KT 10SM CLR 08/M01 A3034 RMK AO2 SLP269 T00781011
Pressure 30.33 in
Visibility 10.0 miles
Clouds Clear
Windchill 44 °F
Dew Point 25 °F
Humidity 47%
Rainfall 0.00 in
Snow Depth Not available.
6:52 AM 8:10 PM
Waxing Crescent, 31% visible
METAR KAVL 210354Z AUTO 20005KT 10SM CLR 08/M01 A3034 RMK AO2 SLP269 T00781011

Get Your Daily Forecast Email!

Thanks for signing up!

Be on the lookout for a verification email in your inbox.

You'll start receiving severe weather alerts in your inbox..

×

10-Day Weather Forecast

Almanac

Astronomy

Apr. 21, 2018 Rise Set
Actual Time
Civil Twilight
Nautical Twilight
Astronomical Twilight
Moon
Length of Visible Light
Length of Day
Tomorrow will be .
, % of the Moon is Illuminated

Today's Extremes

State Highs State Lows

Community

WunderPhotos

Category 6

Welcome to Category 6. This is the collective home for Weather Underground's featured writeups by Dr. Jeff Masters (right), Bob Henson (left), Chris Burt, and other regular contributors.

Nearby

Air Quality

  Air Quality AQ Index Pollutant
Not available.

Snow Depth

Station Depth Elevation

Earthquake Activity

City Distance Mag. Time & Date
Minimum magnitude displayed is 2.5.

Coastal Water Temperatures

Place Temperature

Stations

Nearby Weather Stations

Station Location Temp. Windchill Dew Point Humidity Wind Precip. Elev Updated Type
                   

Watches & Warnings

Frost Advisory
Issued: 7:59 PM EDT Apr. 20, 2018 – National Weather Service

... Frost advisory in effect from 4 am to 9 am EDT Saturday...

The National Weather Service in Greenville-Spartanburg has issued
a frost advisory, which is in effect from 4 am to 9 am EDT
Saturday.

* Locations... the central and southern mountains of North
Carolina and also Rabun County in northeast Georgia.

* Temperatures... lows in the mid 30s.

* Winds... southeast 5 mph or less.

* Impacts... frost and freeze conditions may damage sensitive
vegetation. Take steps now to protect tender plants from the
cold.

Precautionary/preparedness actions...

A frost advisory means that widespread frost is expected.
Sensitive outdoor plants may be killed if left uncovered.



Ark